QTR17L OTHH-LGAV

Flight info

Callsign QTR17L
Flight time 4h 35m
Altitude 28000
Route DATRI L564 BAT/N0524F290 L564 MIGMA/N0515F280 M628 AMBAG/N0489F400 M321 KSA T503 OVANO L768 FIRAS R655 KTN R785 NIKAS M978 LCA M601 VADUS DCT EVENO UM601 RDS UL995 VARIX
Aircraft A359/H-SDE2E3GHIJ3J4J5LM1ORWXY/LB1D1

Departure

Time 2026-05-04 07:54
Airport Hamad International Airport (OTHH)

Arrival

Time 2026-05-04 12:29
Airport Athens Eleftherios Venizelos International Airport (LGAV)
Time Latitude Longitude Altitude Speed Heading
2026-05-04 07:30 25.26711 51.60832 36 ft 0 kts 23°
2026-05-04 07:40 25.26700 51.60826 35 ft 4 kts 23°
2026-05-04 07:41 25.26675 51.60815 33 ft 4 kts 26°
2026-05-04 07:41 25.26653 51.60799 35 ft 4 kts 48°
2026-05-04 07:41 25.26640 51.60775 34 ft 4 kts 86°
2026-05-04 07:41 25.26642 51.60756 34 ft 0 kts 113°
2026-05-04 07:45 25.26636 51.60773 34 ft 7 kts 111°
2026-05-04 07:45 25.26613 51.60830 36 ft 10 kts 114°
2026-05-04 07:46 25.26571 51.60929 36 ft 13 kts 127°
2026-05-04 07:46 25.26502 51.60971 36 ft 12 kts 154°
2026-05-04 07:46 25.26452 51.60971 36 ft 4 kts 228°
2026-05-04 07:46 25.26419 51.60933 36 ft 10 kts 215°
2026-05-04 07:47 25.26331 51.60935 36 ft 17 kts 173°
2026-05-04 07:47 25.26251 51.60855 36 ft 17 kts 248°
2026-05-04 07:47 25.26205 51.60726 36 ft 19 kts 248°
2026-05-04 07:49 25.25605 51.60675 33 ft 0 kts 238°
2026-05-04 07:51 25.25596 51.60659 33 ft 7 kts 238°
2026-05-04 07:51 25.25578 51.60569 32 ft 15 kts 275°
2026-05-04 07:51 25.25646 51.60493 31 ft 15 kts 340°
2026-05-04 07:52 25.25674 51.60482 32 ft 0 kts 340°
2026-05-04 07:53 25.25732 51.60457 33 ft 34 kts 338°
2026-05-04 07:54 25.32636 51.57488 3083 ft 171 kts 336°
2026-05-04 07:55 25.33740 51.56966 3487 ft 175 kts 336°
2026-05-04 07:55 25.34869 51.56443 3861 ft 177 kts 338°
2026-05-04 07:55 25.36003 51.55928 3992 ft 176 kts 338°
2026-05-04 07:55 25.37142 51.55418 4004 ft 177 kts 339°
2026-05-04 07:56 25.38286 51.54908 4005 ft 177 kts 338°
2026-05-04 07:56 25.39434 51.54398 3995 ft 181 kts 338°
2026-05-04 07:56 25.40698 51.53837 3998 ft 211 kts 338°
2026-05-04 07:56 25.42156 51.53194 4009 ft 239 kts 339°
2026-05-04 07:57 25.43750 51.52491 4006 ft 251 kts 338°
2026-05-04 07:57 25.45382 51.51766 4002 ft 254 kts 338°
2026-05-04 07:57 25.46987 51.50954 4074 ft 256 kts 329°
2026-05-04 07:57 25.48169 51.49471 4511 ft 265 kts 296°
2026-05-04 07:58 25.48468 51.47438 5110 ft 272 kts 273°
2026-05-04 07:58 25.48383 51.45335 5683 ft 275 kts 270°
2026-05-04 07:58 25.48260 51.43201 6196 ft 280 kts 270°
2026-05-04 07:58 25.48145 51.41069 6668 ft 282 kts 270°
2026-05-04 07:59 25.48037 51.38904 6946 ft 282 kts 270°
2026-05-04 07:59 25.47934 51.36742 7009 ft 282 kts 270°
2026-05-04 07:59 25.47834 51.34576 7003 ft 282 kts 271°
2026-05-04 07:59 25.47736 51.32409 7015 ft 282 kts 270°
2026-05-04 08:00 25.47633 51.30238 7009 ft 283 kts 269°
2026-05-04 08:00 25.47214 51.28096 7017 ft 289 kts 250°
2026-05-04 08:00 25.46004 51.26312 7015 ft 296 kts 221°
2026-05-04 08:02 25.31474 51.25436 7014 ft 304 kts 180°
2026-05-04 08:02 25.29359 51.25467 7013 ft 304 kts 180°
2026-05-04 08:02 25.27250 51.25584 7009 ft 304 kts 171°
2026-05-04 08:03 25.25217 51.26218 7022 ft 303 kts 159°
2026-05-04 08:03 25.23242 51.27049 7024 ft 304 kts 158°
2026-05-04 08:03 25.21272 51.27898 7024 ft 304 kts 158°
2026-05-04 08:03 25.19303 51.28741 7027 ft 304 kts 158°
2026-05-04 08:04 25.17331 51.29579 7028 ft 304 kts 159°
2026-05-04 08:04 25.15356 51.30415 7026 ft 304 kts 159°
2026-05-04 08:04 25.13386 51.31248 7027 ft 304 kts 159°
2026-05-04 08:04 25.11413 51.32081 7026 ft 304 kts 159°
2026-05-04 08:05 25.09440 51.32912 7027 ft 303 kts 159°
2026-05-04 08:05 25.07473 51.33741 7023 ft 302 kts 159°
2026-05-04 08:05 25.05506 51.34573 7023 ft 303 kts 159°
2026-05-04 08:05 25.03533 51.35403 7033 ft 304 kts 159°
2026-05-04 08:06 25.01579 51.36223 7015 ft 305 kts 159°
2026-05-04 08:06 24.99599 51.37055 7031 ft 305 kts 159°
2026-05-04 08:06 24.97616 51.37888 7029 ft 305 kts 159°
2026-05-04 08:06 24.95637 51.38719 7017 ft 305 kts 159°
2026-05-04 08:08 24.83137 51.47468 9651 ft 309 kts 144°
2026-05-04 08:08 24.81373 51.48847 10121 ft 313 kts 144°
2026-05-04 08:10 24.63666 51.55378 12005 ft 381 kts 193°
2026-05-04 08:11 24.61076 51.54717 12396 ft 382 kts 194°
2026-05-04 08:11 24.55874 51.53343 13175 ft 386 kts 194°
2026-05-04 08:11 24.53255 51.52679 13598 ft 387 kts 194°
2026-05-04 08:12 24.50623 51.52032 13940 ft 388 kts 194°
2026-05-04 08:12 24.47981 51.51398 14281 ft 389 kts 193°
2026-05-04 08:12 24.45324 51.50772 14608 ft 391 kts 193°
2026-05-04 08:12 24.42663 51.50147 14953 ft 393 kts 193°
2026-05-04 08:13 24.39985 51.49521 15301 ft 394 kts 193°
2026-05-04 08:13 24.37302 51.48891 15656 ft 395 kts 193°
2026-05-04 08:13 24.34610 51.48259 16005 ft 397 kts 193°
2026-05-04 08:13 24.31939 51.47631 16339 ft 398 kts 193°
2026-05-04 08:14 24.29188 51.46984 16688 ft 400 kts 193°
2026-05-04 08:14 24.26462 51.46344 17037 ft 401 kts 193°
2026-05-04 08:14 24.23755 51.45722 17356 ft 404 kts 192°
2026-05-04 08:16 24.03779 51.45241 19515 ft 415 kts 181°
2026-05-04 08:16 24.00893 51.45262 19843 ft 415 kts 181°
2026-05-04 08:16 23.97998 51.45277 20109 ft 417 kts 181°
2026-05-04 08:17 23.95088 51.45289 20414 ft 418 kts 181°
2026-05-04 08:17 23.92176 51.45298 20697 ft 420 kts 181°
2026-05-04 08:17 23.89251 51.45307 20965 ft 421 kts 181°
2026-05-04 08:17 23.86311 51.45315 21199 ft 423 kts 181°
2026-05-04 08:19 23.65483 51.45386 23061 ft 432 kts 181°
2026-05-04 08:19 23.62472 51.45396 23280 ft 434 kts 181°
2026-05-04 08:20 23.59446 51.45405 23461 ft 436 kts 181°
2026-05-04 08:20 23.56403 51.45416 23674 ft 437 kts 181°
2026-05-04 08:20 23.53353 51.45425 23844 ft 439 kts 181°
2026-05-04 08:20 23.50292 51.45435 24043 ft 441 kts 181°
2026-05-04 08:21 23.47220 51.45446 24238 ft 442 kts 181°
2026-05-04 08:21 23.44143 51.45476 24423 ft 444 kts 181°
2026-05-04 08:21 23.41052 51.45524 24626 ft 445 kts 181°
2026-05-04 08:21 23.37954 51.45578 24789 ft 446 kts 181°
2026-05-04 08:22 23.34839 51.45634 24968 ft 448 kts 181°
2026-05-04 08:22 23.31717 51.45688 25158 ft 449 kts 181°
2026-05-04 08:24 23.09623 51.46017 26505 ft 458 kts 181°
2026-05-04 08:24 23.06425 51.46058 26700 ft 460 kts 181°
2026-05-04 08:24 23.03266 51.46100 26904 ft 461 kts 181°
2026-05-04 08:24 23.00014 51.46144 27099 ft 462 kts 181°
2026-05-04 08:25 22.96830 51.46188 27310 ft 464 kts 181°
2026-05-04 08:25 22.93609 51.46069 27499 ft 463 kts 188°
2026-05-04 08:25 22.90458 51.45408 27703 ft 461 kts 198°
2026-05-04 08:25 22.87490 51.44137 27917 ft 459 kts 209°
2026-05-04 08:26 22.84816 51.42262 28116 ft 457 kts 220°
2026-05-04 08:27 22.80937 51.20366 29612 ft 469 kts 297°
2026-05-04 08:28 22.82786 51.17439 29829 ft 473 kts 305°
2026-05-04 08:28 22.84656 51.14509 29996 ft 473 kts 299°
2026-05-04 08:28 22.86232 51.11388 30179 ft 471 kts 292°
2026-05-04 08:28 22.87400 51.08074 30360 ft 470 kts 284°
2026-05-04 08:29 22.88082 51.04614 30542 ft 469 kts 276°
2026-05-04 08:29 22.88242 51.01085 30739 ft 469 kts 267°
2026-05-04 08:29 22.88045 50.97555 30909 ft 470 kts 267°
2026-05-04 08:31 22.89276 50.72539 32147 ft 479 kts 273°
2026-05-04 08:33 22.90831 50.48576 33824 ft 474 kts 273°
2026-05-04 08:33 22.91056 50.45019 34057 ft 473 kts 273°
2026-05-04 08:35 22.92602 50.20298 35895 ft 465 kts 273°
2026-05-04 08:35 22.92818 50.16799 36157 ft 465 kts 273°
2026-05-04 08:35 22.93033 50.13301 36418 ft 464 kts 273°
2026-05-04 08:35 22.93247 50.09814 36689 ft 463 kts 273°
2026-05-04 08:37 22.94501 49.89061 38431 ft 455 kts 273°
2026-05-04 08:37 22.94705 49.85652 38712 ft 452 kts 273°
2026-05-04 08:37 22.94907 49.82248 38890 ft 453 kts 273°
2026-05-04 08:38 22.95109 49.78839 39040 ft 453 kts 273°
2026-05-04 08:38 22.95307 49.75475 39207 ft 453 kts 272°
2026-05-04 08:38 22.95508 49.72060 39385 ft 453 kts 272°
2026-05-04 08:40 22.96891 49.48220 39848 ft 452 kts 272°
2026-05-04 08:40 22.97085 49.44813 39848 ft 452 kts 272°
2026-05-04 08:41 22.97471 49.38014 39846 ft 452 kts 272°
2026-05-04 08:41 22.97855 49.31210 39845 ft 452 kts 272°
2026-05-04 08:42 22.98235 49.24409 39849 ft 452 kts 272°
2026-05-04 08:42 22.98613 49.17607 39848 ft 451 kts 272°
2026-05-04 08:43 22.98987 49.10825 39851 ft 450 kts 272°
2026-05-04 08:43 22.99357 49.04050 39850 ft 450 kts 272°
2026-05-04 08:44 22.99738 48.97267 39852 ft 450 kts 272°
2026-05-04 08:46 23.01983 48.70183 39856 ft 450 kts 273°
2026-05-04 08:46 23.02521 48.63409 39862 ft 450 kts 273°
2026-05-04 08:47 23.03053 48.56676 39862 ft 450 kts 273°
2026-05-04 08:47 23.03585 48.49919 39861 ft 449 kts 273°
2026-05-04 08:48 23.04113 48.43169 39856 ft 449 kts 273°
2026-05-04 08:48 23.04639 48.36411 39859 ft 449 kts 273°
2026-05-04 08:49 23.05163 48.29649 39857 ft 449 kts 273°
2026-05-04 08:50 23.06971 48.05995 39859 ft 449 kts 272°
2026-05-04 08:51 23.07482 47.99237 39865 ft 449 kts 272°
2026-05-04 08:51 23.07989 47.92485 39873 ft 448 kts 272°
2026-05-04 08:52 23.08678 47.85761 39879 ft 450 kts 279°
2026-05-04 08:52 23.10776 47.79326 39880 ft 457 kts 294°
2026-05-04 08:54 23.31313 47.61957 39901 ft 480 kts 323°
2026-05-04 08:55 23.36996 47.58144 39900 ft 480 kts 322°
2026-05-04 08:55 23.42679 47.54293 39908 ft 481 kts 322°
2026-05-04 09:01 24.02318 47.13630 39940 ft 482 kts 322°
2026-05-04 09:01 24.08006 47.09729 39938 ft 482 kts 322°
2026-05-04 09:02 24.13961 47.06255 39936 ft 489 kts 329°
2026-05-04 09:02 24.20211 47.03266 39947 ft 490 kts 330°
2026-05-04 09:03 24.26504 47.00359 39949 ft 491 kts 330°
2026-05-04 09:03 24.32755 46.97471 39953 ft 491 kts 330°
2026-05-04 09:04 24.39039 46.94550 39965 ft 491 kts 330°
2026-05-04 09:04 24.45325 46.91618 39959 ft 491 kts 330°
2026-05-04 09:05 24.51605 46.88684 39963 ft 491 kts 330°
2026-05-04 09:05 24.57891 46.85744 39970 ft 491 kts 330°
2026-05-04 09:06 24.64173 46.82804 39962 ft 491 kts 330°
2026-05-04 09:08 24.89279 46.71021 39994 ft 490 kts 330°
2026-05-04 09:08 24.95516 46.68005 39991 ft 486 kts 326°
2026-05-04 09:09 25.00974 46.63847 39995 ft 472 kts 312°
2026-05-04 09:09 25.05860 46.59025 39990 ft 470 kts 310°
2026-05-04 09:10 25.10641 46.54098 39985 ft 470 kts 310°
2026-05-04 09:10 25.15424 46.49161 39977 ft 471 kts 310°
2026-05-04 09:11 25.20215 46.44243 39973 ft 470 kts 310°
2026-05-04 09:11 25.25012 46.39328 39971 ft 470 kts 310°
2026-05-04 09:12 25.29807 46.34410 39972 ft 470 kts 310°
2026-05-04 09:14 25.48933 46.14737 39974 ft 468 kts 309°
2026-05-04 09:14 25.53700 46.09819 39963 ft 468 kts 309°
2026-05-04 09:15 25.58460 46.04902 39966 ft 468 kts 309°
2026-05-04 09:15 25.63222 45.99981 39977 ft 468 kts 309°
2026-05-04 09:17 25.84605 45.77796 39963 ft 468 kts 309°
2026-05-04 09:18 25.89325 45.72889 39966 ft 468 kts 309°
2026-05-04 09:18 25.94072 45.67942 39965 ft 468 kts 309°
2026-05-04 09:19 25.98817 45.62987 39969 ft 468 kts 309°
2026-05-04 09:19 26.02795 45.58830 39965 ft 468 kts 309°
2026-05-04 09:20 26.08306 45.53067 39971 ft 468 kts 309°
2026-05-04 09:20 26.12251 45.48937 39975 ft 468 kts 309°
2026-05-04 09:21 26.17021 45.43938 39976 ft 468 kts 309°
2026-05-04 09:21 26.21733 45.38998 39968 ft 468 kts 309°
2026-05-04 09:22 26.26470 45.34024 39975 ft 468 kts 308°
2026-05-04 09:22 26.31201 45.29052 39976 ft 467 kts 308°
2026-05-04 09:23 26.35937 45.24090 39974 ft 467 kts 308°
2026-05-04 09:23 26.40671 45.19122 39978 ft 467 kts 308°
2026-05-04 09:25 26.59499 44.99306 39993 ft 464 kts 308°
2026-05-04 09:26 26.64185 44.94371 39974 ft 462 kts 307°
2026-05-04 09:26 26.68849 44.89442 39974 ft 461 kts 307°
2026-05-04 09:27 26.73513 44.84505 39971 ft 461 kts 307°
2026-05-04 09:27 26.78177 44.79569 39970 ft 461 kts 308°
2026-05-04 09:28 26.82804 44.74660 39963 ft 461 kts 307°
2026-05-04 09:28 26.87486 44.69676 39963 ft 461 kts 307°
2026-05-04 09:29 26.92103 44.64757 39966 ft 461 kts 307°
2026-05-04 09:29 26.96752 44.59802 39969 ft 461 kts 307°
2026-05-04 09:30 27.01396 44.54850 39958 ft 461 kts 307°
2026-05-04 09:30 27.06034 44.49888 39953 ft 461 kts 307°
2026-05-04 09:31 27.10667 44.44919 39948 ft 461 kts 307°
2026-05-04 09:31 27.15302 44.39945 39951 ft 461 kts 307°
2026-05-04 09:32 27.19935 44.34968 39946 ft 461 kts 307°
2026-05-04 09:34 27.38520 44.14999 39930 ft 463 kts 306°
2026-05-04 09:34 27.43172 44.09983 39954 ft 463 kts 306°
2026-05-04 09:35 27.47829 44.04957 39958 ft 463 kts 306°
2026-05-04 09:35 27.52478 43.99934 39948 ft 464 kts 306°
2026-05-04 09:37 27.71077 43.79770 39954 ft 465 kts 306°
2026-05-04 09:38 27.75735 43.74704 39944 ft 465 kts 306°
2026-05-04 09:38 27.80395 43.69630 39944 ft 465 kts 306°
2026-05-04 09:39 27.85050 43.64555 39950 ft 465 kts 306°
2026-05-04 09:39 27.89528 43.59332 39949 ft 461 kts 302°
2026-05-04 09:40 27.93860 43.53989 39946 ft 461 kts 302°
2026-05-04 09:40 27.98209 43.48657 39951 ft 461 kts 303°
2026-05-04 09:42 28.15720 43.27459 39954 ft 460 kts 303°
2026-05-04 09:43 28.20058 43.22192 39977 ft 460 kts 303°
2026-05-04 09:43 28.24412 43.16902 39961 ft 458 kts 303°
2026-05-04 09:44 28.28751 43.11621 39961 ft 458 kts 302°
2026-05-04 09:46 28.46079 42.90463 39992 ft 457 kts 302°
2026-05-04 09:46 28.50397 42.85175 39970 ft 456 kts 302°
2026-05-04 09:47 28.54708 42.79887 39971 ft 455 kts 302°
2026-05-04 09:49 28.71915 42.58716 39985 ft 455 kts 302°
2026-05-04 09:51 28.86869 42.40215 40018 ft 454 kts 302°
2026-05-04 09:51 28.91120 42.34951 39985 ft 448 kts 302°
2026-05-04 09:52 28.95329 42.29725 39986 ft 446 kts 301°
2026-05-04 09:52 28.99524 42.24503 39995 ft 446 kts 301°
2026-05-04 09:53 29.03713 42.19282 40029 ft 446 kts 301°
2026-05-04 09:53 29.07898 42.14076 39997 ft 443 kts 301°
2026-05-04 09:54 29.12051 42.08888 39999 ft 442 kts 301°
2026-05-04 09:54 29.16201 42.03693 40002 ft 442 kts 301°
2026-05-04 09:55 29.20347 41.98500 40039 ft 442 kts 301°
2026-05-04 09:55 29.24488 41.93309 40004 ft 441 kts 301°
2026-05-04 09:56 29.28624 41.88117 40005 ft 441 kts 301°
2026-05-04 09:56 29.32756 41.82924 40011 ft 441 kts 301°
2026-05-04 09:57 29.36885 41.77728 40011 ft 441 kts 301°
2026-05-04 09:57 29.41016 41.72523 40008 ft 441 kts 301°
2026-05-04 09:58 29.45143 41.67315 40013 ft 441 kts 301°
2026-05-04 09:58 29.49272 41.62100 40013 ft 441 kts 301°
2026-05-04 10:00 29.65780 41.41177 40022 ft 442 kts 300°
2026-05-04 10:02 29.81123 41.23409 40019 ft 455 kts 307°
2026-05-04 10:04 29.97672 41.06437 40025 ft 455 kts 306°
2026-05-04 10:04 30.02394 41.01565 40024 ft 455 kts 306°
2026-05-04 10:05 30.07113 40.96690 40047 ft 456 kts 307°
2026-05-04 10:05 30.11839 40.91802 40022 ft 456 kts 307°
2026-05-04 10:06 30.16564 40.86907 40027 ft 456 kts 307°
2026-05-04 10:06 30.21262 40.82036 40025 ft 457 kts 307°
2026-05-04 10:08 30.37794 40.64840 40025 ft 457 kts 306°
2026-05-04 10:08 30.41766 40.60722 40057 ft 457 kts 307°
2026-05-04 10:09 30.46540 40.55845 40023 ft 458 kts 307°
2026-05-04 10:09 30.51324 40.50961 40022 ft 458 kts 307°
2026-05-04 10:10 30.56070 40.46098 40019 ft 458 kts 307°
2026-05-04 10:10 30.60831 40.41208 40019 ft 457 kts 307°
2026-05-04 10:11 30.65582 40.36317 40017 ft 456 kts 307°
2026-05-04 10:11 30.70328 40.31423 40015 ft 456 kts 307°
2026-05-04 10:12 30.75075 40.26523 40018 ft 456 kts 307°
2026-05-04 10:12 30.79812 40.21628 40022 ft 455 kts 307°
2026-05-04 10:13 30.84534 40.16743 40017 ft 454 kts 307°
2026-05-04 10:13 30.89247 40.11858 40018 ft 454 kts 307°
2026-05-04 10:14 30.93961 40.06964 40017 ft 454 kts 307°
2026-05-04 10:16 31.12769 39.87378 40032 ft 453 kts 307°
2026-05-04 10:16 31.17472 39.82463 40013 ft 454 kts 307°
2026-05-04 10:17 31.22176 39.77540 40010 ft 454 kts 307°
2026-05-04 10:19 31.40957 39.57820 40040 ft 454 kts 307°
2026-05-04 10:19 31.45648 39.52879 40013 ft 453 kts 307°
2026-05-04 10:20 31.50333 39.47934 40012 ft 453 kts 307°
2026-05-04 10:20 31.54984 39.43018 40012 ft 453 kts 307°
2026-05-04 10:21 31.59664 39.38065 40014 ft 453 kts 307°
2026-05-04 10:21 31.64338 39.33111 40033 ft 453 kts 307°
2026-05-04 10:22 31.71343 39.25674 40014 ft 453 kts 306°
2026-05-04 10:23 31.76012 39.20708 40019 ft 452 kts 306°
2026-05-04 10:25 31.98766 39.05347 40012 ft 480 kts 322°
2026-05-04 10:25 32.04746 39.01834 40018 ft 480 kts 322°
2026-05-04 10:26 32.10717 38.98317 40018 ft 480 kts 322°
2026-05-04 10:26 32.16699 38.94786 40013 ft 481 kts 322°
2026-05-04 10:27 32.22686 38.91247 40012 ft 481 kts 322°
2026-05-04 10:27 32.28664 38.87708 40023 ft 481 kts 322°
2026-05-04 10:28 32.34641 38.84165 40007 ft 481 kts 322°
2026-05-04 10:28 32.40578 38.80638 40004 ft 481 kts 322°
2026-05-04 10:29 32.46560 38.77080 39998 ft 481 kts 322°
2026-05-04 10:29 32.52538 38.73520 39997 ft 481 kts 322°
2026-05-04 10:30 32.58518 38.69954 39993 ft 481 kts 322°
2026-05-04 10:30 32.64498 38.66389 40000 ft 481 kts 322°
2026-05-04 10:31 32.70476 38.62813 39989 ft 482 kts 322°
2026-05-04 10:32 32.91437 38.50236 39997 ft 482 kts 322°
2026-05-04 10:33 32.97431 38.46627 39975 ft 483 kts 322°
2026-05-04 10:33 33.03431 38.43014 39972 ft 483 kts 322°
2026-05-04 10:34 33.09426 38.39390 39971 ft 483 kts 322°
2026-05-04 10:34 33.15421 38.35763 39964 ft 483 kts 322°
2026-05-04 10:35 33.21417 38.32137 39962 ft 484 kts 322°
2026-05-04 10:35 33.27420 38.28494 39960 ft 484 kts 322°
2026-05-04 10:36 33.33413 38.24829 39957 ft 484 kts 322°
2026-05-04 10:36 33.39402 38.21162 39958 ft 484 kts 322°
2026-05-04 10:37 33.45355 38.17516 39973 ft 484 kts 322°
2026-05-04 10:37 33.51371 38.13852 39949 ft 486 kts 322°
2026-05-04 10:39 33.72484 38.01011 39960 ft 487 kts 322°
2026-05-04 10:40 33.78538 37.97307 39934 ft 489 kts 322°
2026-05-04 10:40 33.84438 37.93352 39936 ft 476 kts 314°
2026-05-04 10:40 33.86969 37.90878 39930 ft 463 kts 306°
2026-05-04 10:41 33.89106 37.88057 39927 ft 450 kts 297°
2026-05-04 10:41 33.92593 37.81911 39927 ft 443 kts 292°
2026-05-04 10:42 33.95851 37.75635 39930 ft 442 kts 292°
2026-05-04 10:42 33.99087 37.69342 39940 ft 442 kts 292°
2026-05-04 10:43 34.02356 37.63030 39924 ft 445 kts 292°
2026-05-04 10:45 34.15518 37.37686 39908 ft 447 kts 293°
2026-05-04 10:45 34.18813 37.31313 39901 ft 448 kts 293°
2026-05-04 10:46 34.22462 37.25140 39906 ft 459 kts 302°
2026-05-04 10:46 34.26773 37.19469 39906 ft 463 kts 304°
2026-05-04 10:47 34.31242 37.13832 39893 ft 464 kts 304°
2026-05-04 10:47 34.35718 37.08202 39894 ft 464 kts 304°
2026-05-04 10:49 34.53547 36.85511 39889 ft 466 kts 304°
2026-05-04 10:50 34.58007 36.79808 39886 ft 466 kts 304°
2026-05-04 10:52 34.75877 36.56865 39898 ft 468 kts 304°
2026-05-04 10:52 34.80345 36.51099 39901 ft 468 kts 304°
2026-05-04 10:54 34.98168 36.28025 39913 ft 466 kts 306°
2026-05-04 10:56 35.15854 36.04908 39910 ft 464 kts 304°
2026-05-04 10:57 35.19353 35.98443 39914 ft 450 kts 289°
2026-05-04 10:57 35.21126 35.91233 39911 ft 439 kts 274°
2026-05-04 10:58 35.21185 35.85043 39902 ft 433 kts 261°
2026-05-04 10:58 35.20246 35.77774 39902 ft 433 kts 258°
2026-05-04 10:59 35.19204 35.70528 39902 ft 432 kts 258°
2026-05-04 10:59 35.18145 35.63300 39886 ft 432 kts 258°
2026-05-04 11:00 35.17075 35.56083 39875 ft 431 kts 258°
2026-05-04 11:02 35.12835 35.27358 39856 ft 430 kts 258°
2026-05-04 11:05 35.04608 34.72872 39861 ft 439 kts 258°
2026-05-04 11:06 35.03483 34.65549 39850 ft 439 kts 258°
2026-05-04 11:06 35.02372 34.58240 39842 ft 438 kts 258°
2026-05-04 11:10 34.94473 34.06991 39851 ft 440 kts 258°
2026-05-04 11:12 34.89767 33.77653 39842 ft 441 kts 258°
2026-05-04 11:12 34.88566 33.70330 39853 ft 440 kts 258°
2026-05-04 11:13 34.88111 33.62897 39849 ft 443 kts 272°
2026-05-04 11:13 34.89335 33.55517 39854 ft 448 kts 284°
2026-05-04 11:14 34.91362 33.48321 39851 ft 450 kts 286°
2026-05-04 11:16 34.99801 33.19598 39854 ft 450 kts 286°
2026-05-04 11:16 35.01877 33.12404 39865 ft 449 kts 286°
2026-05-04 11:17 35.03950 33.05209 39856 ft 449 kts 286°
2026-05-04 11:19 35.11930 32.76325 39860 ft 448 kts 285°
2026-05-04 11:19 35.13853 32.69077 39860 ft 448 kts 285°
2026-05-04 11:20 35.15780 32.61835 39890 ft 449 kts 285°
2026-05-04 11:20 35.17709 32.54577 39867 ft 449 kts 285°
2026-05-04 11:22 35.25382 32.25509 39878 ft 451 kts 285°
2026-05-04 11:23 35.27299 32.18196 39878 ft 451 kts 285°
2026-05-04 11:25 35.34045 31.92584 39876 ft 452 kts 286°
2026-05-04 11:25 35.35995 31.85257 39878 ft 452 kts 286°
2026-05-04 11:27 35.44702 31.52169 39882 ft 454 kts 286°
2026-05-04 11:28 35.46628 31.44789 39876 ft 455 kts 286°
2026-05-04 11:28 35.48553 31.37396 39876 ft 455 kts 286°
2026-05-04 11:29 35.50474 31.29999 39876 ft 455 kts 286°
2026-05-04 11:29 35.52390 31.22596 39877 ft 455 kts 286°
2026-05-04 11:33 35.65730 30.70473 39878 ft 458 kts 286°
2026-05-04 11:33 35.67608 30.63051 39880 ft 458 kts 286°
2026-05-04 11:34 35.69497 30.55563 39878 ft 458 kts 286°
2026-05-04 11:34 35.71380 30.48078 39875 ft 458 kts 286°
2026-05-04 11:35 35.73257 30.40590 39876 ft 458 kts 286°
2026-05-04 11:35 35.75130 30.33098 39874 ft 459 kts 286°
2026-05-04 11:36 35.77002 30.25589 39871 ft 459 kts 286°
2026-05-04 11:36 35.78870 30.18075 39870 ft 459 kts 286°
2026-05-04 11:37 35.80725 30.10590 39871 ft 459 kts 286°
2026-05-04 11:37 35.82584 30.03065 39870 ft 460 kts 286°
2026-05-04 11:38 35.84477 29.95542 39871 ft 460 kts 288°
2026-05-04 11:38 35.86527 29.88065 39869 ft 460 kts 288°
2026-05-04 11:39 35.88593 29.80601 39873 ft 460 kts 288°
2026-05-04 11:41 35.95632 29.54522 39885 ft 458 kts 288°
2026-05-04 11:41 35.97638 29.47074 39889 ft 456 kts 288°
2026-05-04 11:42 35.99632 29.39654 39892 ft 456 kts 288°
2026-05-04 11:42 36.01291 29.33464 39901 ft 458 kts 288°
2026-05-04 11:43 36.03276 29.26037 39902 ft 457 kts 288°
2026-05-04 11:43 36.05534 29.18751 39906 ft 457 kts 292°
2026-05-04 11:44 36.08384 29.10285 39916 ft 460 kts 292°
2026-05-04 11:44 36.10447 29.04154 39919 ft 461 kts 292°
2026-05-04 11:45 36.12902 28.96847 39926 ft 460 kts 292°
2026-05-04 11:45 36.15347 28.89551 39934 ft 460 kts 292°
2026-05-04 11:46 36.17801 28.82211 39933 ft 462 kts 292°
2026-05-04 11:46 36.20234 28.74917 39939 ft 462 kts 292°
2026-05-04 11:47 36.22680 28.67566 39937 ft 461 kts 292°
2026-05-04 11:47 36.25112 28.60235 39948 ft 461 kts 292°
2026-05-04 11:48 36.27548 28.52879 39955 ft 462 kts 292°
2026-05-04 11:48 36.29979 28.45519 39952 ft 461 kts 292°
2026-05-04 11:49 36.32399 28.38172 39963 ft 461 kts 292°
2026-05-04 11:49 36.34600 28.31476 39964 ft 462 kts 292°
2026-05-04 11:50 36.37022 28.24090 39966 ft 463 kts 292°
2026-05-04 11:50 36.39439 28.16698 39980 ft 463 kts 292°
2026-05-04 11:51 36.41858 28.09285 39994 ft 463 kts 292°
2026-05-04 11:51 36.44268 28.01878 39993 ft 462 kts 292°
2026-05-04 11:52 36.46670 27.94479 39992 ft 462 kts 292°
2026-05-04 11:52 36.49069 27.87069 39992 ft 462 kts 292°
2026-05-04 11:53 36.51460 27.79665 39994 ft 461 kts 292°
2026-05-04 11:53 36.53846 27.72258 39995 ft 462 kts 292°
2026-05-04 11:55 36.63348 27.42573 40016 ft 461 kts 292°
2026-05-04 11:56 36.65714 27.35132 40024 ft 462 kts 292°
2026-05-04 11:56 36.68071 27.27703 40023 ft 460 kts 292°
2026-05-04 11:57 36.70417 27.20291 40030 ft 460 kts 292°
2026-05-04 11:57 36.72746 27.12911 40047 ft 462 kts 292°
2026-05-04 11:58 36.75095 27.05448 40048 ft 463 kts 292°
2026-05-04 11:58 36.77441 26.97979 40048 ft 463 kts 292°
2026-05-04 11:59 36.79782 26.90502 40047 ft 463 kts 292°
2026-05-04 11:59 36.82120 26.83016 40048 ft 463 kts 292°
2026-05-04 12:00 36.84450 26.75536 40051 ft 462 kts 292°
2026-05-04 12:00 36.86774 26.68057 40058 ft 462 kts 292°
2026-05-04 12:01 36.89091 26.60580 40066 ft 462 kts 292°
2026-05-04 12:02 36.97167 26.34366 40086 ft 462 kts 292°
2026-05-04 12:03 36.99413 26.27030 40067 ft 459 kts 292°
2026-05-04 12:03 37.01667 26.19650 40075 ft 450 kts 292°
2026-05-04 12:04 37.03880 26.12382 40084 ft 443 kts 292°
2026-05-04 12:04 37.06062 26.05203 40090 ft 444 kts 292°
2026-05-04 12:05 37.08278 25.97898 40092 ft 455 kts 292°
2026-05-04 12:05 37.10544 25.90402 40090 ft 463 kts 292°
2026-05-04 12:06 37.12819 25.82855 40098 ft 462 kts 292°
2026-05-04 12:06 37.15086 25.75314 40106 ft 462 kts 292°
2026-05-04 12:07 37.17348 25.67770 40113 ft 462 kts 292°
2026-05-04 12:07 37.19605 25.60221 40114 ft 462 kts 292°
2026-05-04 12:08 37.21851 25.52690 40115 ft 462 kts 292°
2026-05-04 12:08 37.22970 25.48928 39930 ft 457 kts 292°
2026-05-04 12:08 37.24065 25.45244 39231 ft 458 kts 292°
2026-05-04 12:09 37.25183 25.41479 38347 ft 462 kts 292°
2026-05-04 12:09 37.26306 25.37694 37451 ft 464 kts 292°
2026-05-04 12:09 37.27430 25.33894 36614 ft 464 kts 292°
2026-05-04 12:09 37.28547 25.30116 35804 ft 463 kts 293°
2026-05-04 12:10 37.29663 25.26333 35062 ft 461 kts 293°
2026-05-04 12:10 37.30760 25.22604 34145 ft 450 kts 293°
2026-05-04 12:10 37.31837 25.18943 32689 ft 445 kts 293°
2026-05-04 12:10 37.32912 25.15289 30941 ft 448 kts 293°
2026-05-04 12:11 37.34001 25.11589 28911 ft 455 kts 293°
2026-05-04 12:11 37.35101 25.07846 27151 ft 457 kts 292°
2026-05-04 12:11 37.36202 25.04088 26535 ft 460 kts 292°
2026-05-04 12:11 37.37286 25.00290 26249 ft 462 kts 291°
2026-05-04 12:12 37.38277 24.96534 25564 ft 442 kts 290°
2026-05-04 12:12 37.39220 24.92908 24800 ft 436 kts 289°
2026-05-04 12:12 37.40137 24.89399 24040 ft 438 kts 289°
2026-05-04 12:12 37.41096 24.85756 23180 ft 439 kts 289°
2026-05-04 12:13 37.42042 24.82117 22448 ft 435 kts 288°
2026-05-04 12:14 37.45201 24.55550 19635 ft 429 kts 278°
2026-05-04 12:15 37.45566 24.51851 18965 ft 424 kts 278°
2026-05-04 12:15 37.45926 24.48235 18291 ft 420 kts 278°
2026-05-04 12:15 37.46286 24.44612 17538 ft 415 kts 278°
2026-05-04 12:15 37.46642 24.41035 16821 ft 410 kts 279°
2026-05-04 12:16 37.46987 24.37566 16127 ft 405 kts 279°
2026-05-04 12:16 37.47333 24.34075 15503 ft 398 kts 279°
2026-05-04 12:16 37.47673 24.30640 14818 ft 393 kts 279°
2026-05-04 12:16 37.48013 24.27191 14118 ft 389 kts 280°
2026-05-04 12:17 37.48343 24.23836 13388 ft 384 kts 280°
2026-05-04 12:17 37.48670 24.20515 12614 ft 381 kts 280°
2026-05-04 12:17 37.48993 24.17222 11843 ft 377 kts 280°
2026-05-04 12:17 37.49311 24.13982 11350 ft 367 kts 280°
2026-05-04 12:18 37.49795 24.11001 10879 ft 337 kts 290°
2026-05-04 12:18 37.50481 24.08295 10426 ft 313 kts 292°
2026-05-04 12:18 37.51194 24.05808 10008 ft 290 kts 294°
2026-05-04 12:18 37.51901 24.03508 9440 ft 276 kts 295°
2026-05-04 12:19 37.52608 24.01299 8699 ft 270 kts 295°
2026-05-04 12:19 37.53316 23.99128 7950 ft 265 kts 295°
2026-05-04 12:19 37.54012 23.96993 7222 ft 261 kts 295°
2026-05-04 12:19 37.54694 23.94887 6506 ft 258 kts 294°
2026-05-04 12:20 37.55363 23.92805 5746 ft 255 kts 294°
2026-05-04 12:20 37.56025 23.90734 4974 ft 254 kts 294°
2026-05-04 12:20 37.56679 23.88675 4192 ft 253 kts 293°
2026-05-04 12:20 37.57319 23.86654 3700 ft 242 kts 293°
2026-05-04 12:21 37.57929 23.84724 3225 ft 232 kts 293°
2026-05-04 12:21 37.58641 23.82947 2987 ft 222 kts 306°
2026-05-04 12:21 37.59677 23.81598 2969 ft 209 kts 324°
2026-05-04 12:21 37.60971 23.80814 2975 ft 208 kts 343°
2026-05-04 12:22 37.62410 23.80584 2981 ft 210 kts 357°
2026-05-04 12:22 37.63867 23.80676 2981 ft 211 kts
2026-05-04 12:22 37.65328 23.80916 2984 ft 212 kts
2026-05-04 12:22 37.66761 23.81196 2986 ft 212 kts
2026-05-04 12:23 37.68221 23.81471 2978 ft 212 kts
2026-05-04 12:23 37.69684 23.81716 2987 ft 212 kts
2026-05-04 12:23 37.71150 23.81934 2981 ft 211 kts
2026-05-04 12:23 37.72610 23.82130 2979 ft 209 kts
2026-05-04 12:24 37.73997 23.82307 2985 ft 193 kts
2026-05-04 12:24 37.75317 23.82471 2998 ft 189 kts
2026-05-04 12:24 37.76624 23.82630 2995 ft 188 kts
2026-05-04 12:24 37.77927 23.82786 2993 ft 188 kts
2026-05-04 12:25 37.79225 23.82943 2987 ft 188 kts
2026-05-04 12:25 37.80516 23.83237 2990 ft 192 kts 18°
2026-05-04 12:25 37.81678 23.84132 2978 ft 194 kts 35°
2026-05-04 12:25 37.82718 23.85175 2758 ft 189 kts 34°
2026-05-04 12:26 37.83757 23.86155 2486 ft 182 kts 32°
2026-05-04 12:26 37.84735 23.87075 2251 ft 169 kts 33°
2026-05-04 12:26 37.85656 23.87954 2035 ft 163 kts 33°
2026-05-04 12:26 37.86554 23.88806 1803 ft 160 kts 34°
2026-05-04 12:27 37.87368 23.89581 1613 ft 157 kts 33°
2026-05-04 12:27 37.88212 23.90384 1415 ft 147 kts 35°
2026-05-04 12:27 37.88998 23.91135 1232 ft 133 kts 33°
2026-05-04 12:27 37.89721 23.91810 1056 ft 127 kts 33°
2026-05-04 12:28 37.90424 23.92474 889 ft 127 kts 37°
2026-05-04 12:28 37.91130 23.93154 677 ft 128 kts 39°
2026-05-04 12:28 37.91831 23.93825 505 ft 126 kts 39°
2026-05-04 12:28 37.92534 23.94496 358 ft 127 kts 39°
2026-05-04 12:29 37.92996 23.94929 300 ft 121 kts 39°
2026-05-04 12:29 37.93602 23.95512 290 ft 94 kts 36°
2026-05-04 12:29 37.94172 23.96053 281 ft 63 kts 37°
2026-05-04 12:29 37.94385 23.96244 278 ft 25 kts 28°
2026-05-04 12:30 37.94541 23.96315 277 ft 24 kts
2026-05-04 12:30 37.94648 23.96291 276 ft 11 kts 308°
2026-05-04 12:30 37.94646 23.96232 277 ft 9 kts 233°
2026-05-04 12:30 37.94587 23.96169 278 ft 13 kts 219°
2026-05-04 12:31 37.94509 23.96092 278 ft 16 kts 217°
2026-05-04 12:31 37.94413 23.96006 283 ft 18 kts 214°
2026-05-04 12:31 37.94306 23.95905 282 ft 20 kts 216°
2026-05-04 12:31 37.94185 23.95790 282 ft 23 kts 217°
2026-05-04 12:32 37.94086 23.95696 283 ft 19 kts 217°
2026-05-04 12:32 37.93846 23.95466 285 ft 24 kts 217°
2026-05-04 12:32 37.93738 23.95362 290 ft 20 kts 217°
2026-05-04 12:33 37.93619 23.95248 290 ft 23 kts 216°
2026-05-04 12:33 37.93526 23.95163 294 ft 16 kts 216°
2026-05-04 12:33 37.93433 23.95074 294 ft 16 kts 217°
2026-05-04 12:33 37.93401 23.94958 295 ft 16 kts 300°
2026-05-04 12:34 37.93447 23.94858 294 ft 12 kts 279°
2026-05-04 12:34 37.93423 23.94786 296 ft 8 kts 244°
2026-05-04 12:34 37.93434 23.94749 296 ft 5 kts 310°
2026-05-04 12:34 37.93465 23.94701 295 ft 8 kts 309°
2026-05-04 12:35 37.93467 23.94699 295 ft 0 kts 309°